Home   Weather   Gibraltar   Past weeks

Flag for Gibraltar Past Weather in Gibraltar, Gibraltar — Yesterday and Last 2 Weeks

64 °F

Low clouds.

Feels Like: 64 °F
Forecast: 65 / 72 °F
Wind: 3 mph from Northeast

Location: Gibraltar Airport

Current Time: Oct 20, 2016 at 11:34:59 PM

Latest Report: Oct 20, 2016 at 10:50 PM

Visibility: 0 mi

Pressure: 29.92 "Hg

Humidity: 100%

Dew Point: 64 °F

Location of GibraltarLocation

Past Weather in Gibraltar — Graph


Gibraltar Temperature Yesterday

Maximum temperature yesterday: 72 °F (at 1:50 PM)
Minimum temperature yesterday: 64 °F (at 1:50 AM)
Average temperature yesterday: 67 °F

High & Low Weather Summary for the Past Weeks

High81 °F (Oct 7, 3:50 PM)100% (Oct 6, 5:50 AM)30.24 "Hg (Oct 6, 5:50 AM)
Low57 °F (Oct 15, 8:50 AM)45% (Oct 7, 1:50 PM)29.62 "Hg (Oct 13, 4:50 AM)
Average68 °F81%29.97 "Hg
* Reported Oct 5 9:50 PM — Oct 20 9:50 PM, Gibraltar, Weather by CustomWeather, © 2016

Note: Actual official high and low records may vary slightly from our data, if they occured in-between our weather recording intervals... More about our weather records


Gibraltar Weather History for the Previous 24 Hours

Scroll right to see more
Time TempWeatherWind HumidityBarometerVisibility
9:50 PM
Thu, Oct 20
64 °FFog.3 mph100%29.92 "Hg2 mi
8:50 PM66 °FFog.3 mph94%29.92 "Hg5 mi
7:50 PM66 °FFog.5 mph94%29.92 "Hg5 mi
6:50 PM66 °FPartly sunny.5 mph94%29.92 "Hg5 mi
5:50 PM68 °FPartly sunny.7 mph88%29.92 "Hg4 mi
4:50 PM70 °FPartly sunny.6 mph83%29.92 "Hg4 mi
3:50 PM70 °FPartly sunny.8 mph83%29.92 "Hg5 mi
2:50 PM68 °FBroken clouds.7 mph88%29.95 "Hg6 mi
1:50 PM68 °FFog.7 mph88%29.98 "Hg5 mi
12:50 PM66 °FPartly sunny.8 mph94%29.98 "HgN/A
11:50 AM66 °FFog.8 mph94%29.98 "Hg1 mi
10:50 AM64 °FFog.5 mph100%29.98 "Hg4 mi
9:50 AM64 °FFog.6 mph100%29.98 "Hg2 mi
8:50 AM64 °FFog.6 mph100%29.98 "Hg3 mi
7:50 AM64 °FFog.3 mph100%29.98 "Hg3 mi
6:50 AM64 °FFog.3 mph100%29.98 "Hg1 mi
5:50 AM64 °FLow clouds.7 mph94%29.98 "Hg0 mi
4:50 AM64 °FLow clouds.7 mph94%29.98 "Hg1 mi
3:50 AM64 °FLow clouds.8 mph100%30.01 "Hg0 mi
2:50 AM64 °FLow clouds.5 mph94%30.01 "Hg0 mi
1:50 AM64 °FPassing clouds.7 mph100%30.04 "Hg2 mi
12:50 AM64 °FMostly cloudy.7 mph100%30.04 "Hg4 mi
11:50 PM
Wed, Oct 19
66 °FLow clouds.8 mph100%30.04 "Hg4 mi
Weather by CustomWeather, © 2016

See weather overviewHow to use our weather pages